Data supplied by UK-AIR on 29/3/2018
All Data GMT hour ending 
Status: R =Ratified P=Provisional,P*=As supplied
,,St Osyth,,,,,,,,,,,,,,,,,,,,,,,
Date,time,"Nitric oxide",status,unit,"Nitrogen dioxide",status,unit,"Nitrogen oxides as nitrogen dioxide",status,unit,"Ozone",status,unit
 
01-01-2017,01:00,1.13380,R,ugm-3,16.61198,R,ugm-3,18.35044,R,ugm-3,37.65221,R,ugm-3
01-01-2017,02:00,0.75586,R,ugm-3,15.83933,R,ugm-3,16.99830,R,ugm-3,38.58353,R,ugm-3
01-01-2017,03:00,0.85035,R,ugm-3,13.95599,R,ugm-3,15.25984,R,ugm-3,41.21121,R,ugm-3
01-01-2017,04:00,0.47242,R,ugm-3,12.36240,R,ugm-3,13.08676,R,ugm-3,45.25250,R,ugm-3
01-01-2017,05:00,0.06299,R,ugm-3,13.23163,R,ugm-3,13.32821,R,ugm-3,39.51486,R,ugm-3
01-01-2017,06:00,0.12598,R,ugm-3,13.66625,R,ugm-3,13.85941,R,ugm-3,38.66669,R,ugm-3
01-01-2017,07:00,0.03149,R,ugm-3,11.15513,R,ugm-3,11.20343,R,ugm-3,43.20691,R,ugm-3
01-01-2017,08:00,0.03149,R,ugm-3,11.01026,R,ugm-3,11.05855,R,ugm-3,43.20691,R,ugm-3
01-01-2017,09:00,0.31494,R,ugm-3,12.65214,R,ugm-3,13.13505,R,ugm-3,38.51701,R,ugm-3
01-01-2017,10:00,0.91334,R,ugm-3,13.13505,R,ugm-3,14.53548,R,ugm-3,36.92045,R,ugm-3
01-01-2017,11:00,2.01564,R,ugm-3,14.43890,R,ugm-3,17.52950,R,ugm-3,36.57120,R,ugm-3
01-01-2017,12:00,1.98414,R,ugm-3,14.82522,R,ugm-3,17.86753,R,ugm-3,38.11787,R,ugm-3
01-01-2017,13:00,2.55104,R,ugm-3,17.43292,R,ugm-3,21.34446,R,ugm-3,32.18066,R,ugm-3
01-01-2017,14:00,2.51955,R,ugm-3,16.75685,R,ugm-3,20.62010,R,ugm-3,30.38453,R,ugm-3
01-01-2017,15:00,5.63748,R,ugm-3,24.77309,R,ugm-3,33.41711,R,ugm-3,22.15227,R,ugm-3
01-01-2017,16:00,3.52736,R,ugm-3,15.83933,R,ugm-3,21.24788,R,ugm-3,56.32863,R,ugm-3
01-01-2017,17:00,1.57472,R,ugm-3,11.54146,R,ugm-3,13.95599,R,ugm-3,72.19445,R,ugm-3
01-01-2017,18:00,1.03931,R,ugm-3,11.30001,R,ugm-3,12.89360,R,ugm-3,71.89509,R,ugm-3
01-01-2017,19:00,1.29127,R,ugm-3,11.44488,R,ugm-3,13.42479,R,ugm-3,69.40047,R,ugm-3
01-01-2017,20:00,1.92115,R,ugm-3,12.02437,R,ugm-3,14.97009,R,ugm-3,67.70412,R,ugm-3
01-01-2017,21:00,2.36207,R,ugm-3,12.74873,R,ugm-3,16.37052,R,ugm-3,65.10971,R,ugm-3
01-01-2017,22:00,2.67702,R,ugm-3,13.32821,R,ugm-3,17.43292,R,ugm-3,59.72132,R,ugm-3
01-01-2017,23:00,2.48805,R,ugm-3,11.83120,R,ugm-3,15.64616,R,ugm-3,58.47401,R,ugm-3
01-01-2017,24:00,2.14161,R,ugm-3,10.28590,R,ugm-3,13.56967,R,ugm-3,55.77982,R,ugm-3
02-01-2017,01:00,2.18361,R,ugm-3,10.18661,R,ugm-3,13.53476,R,ugm-3,56.54483,R,ugm-3
02-01-2017,02:00,2.51955,R,ugm-3,12.05576,R,ugm-3,15.91901,R,ugm-3,54.61566,R,ugm-3
02-01-2017,03:00,2.86598,R,ugm-3,11.36360,R,ugm-3,15.75804,R,ugm-3,55.18111,R,ugm-3
02-01-2017,04:00,2.89748,R,ugm-3,10.63828,R,ugm-3,15.08102,R,ugm-3,53.58455,R,ugm-3
02-01-2017,05:00,2.26759,R,ugm-3,9.13936,R,ugm-3,12.61628,R,ugm-3,52.73637,R,ugm-3
02-01-2017,06:00,2.11012,R,ugm-3,8.65550,R,ugm-3,11.89097,R,ugm-3,50.19186,R,ugm-3
02-01-2017,07:00,2.01564,R,ugm-3,8.89695,R,ugm-3,11.98755,R,ugm-3,48.99444,R,ugm-3
02-01-2017,08:00,1.92115,R,ugm-3,9.47739,R,ugm-3,12.42312,R,ugm-3,47.09852,R,ugm-3
02-01-2017,09:00,2.01564,R,ugm-3,10.78220,R,ugm-3,13.87280,R,ugm-3,44.60390,R,ugm-3
02-01-2017,10:00,2.58254,R,ugm-3,13.58688,R,ugm-3,17.54671,R,ugm-3,42.90755,R,ugm-3
02-01-2017,11:00,3.11794,R,ugm-3,14.36192,R,ugm-3,19.14269,R,ugm-3,45.65164,R,ugm-3
02-01-2017,12:00,2.67702,R,ugm-3,12.23331,R,ugm-3,16.33801,R,ugm-3,48.89465,R,ugm-3
02-01-2017,13:00,1.92115,R,ugm-3,9.96078,R,ugm-3,12.90651,R,ugm-3,53.63444,R,ugm-3
02-01-2017,14:00,1.70069,R,ugm-3,10.25100,R,ugm-3,12.85869,R,ugm-3,54.28304,R,ugm-3
02-01-2017,15:00,1.48023,R,ugm-3,10.63733,R,ugm-3,12.90698,R,ugm-3,52.08777,R,ugm-3
02-01-2017,16:00,1.54322,R,ugm-3,13.39180,R,ugm-3,15.75804,R,ugm-3,45.50196,R,ugm-3
02-01-2017,17:00,1.54322,R,ugm-3,15.47021,R,ugm-3,17.83645,R,ugm-3,39.56475,R,ugm-3
02-01-2017,18:00,1.79518,R,ugm-3,16.19601,R,ugm-3,18.94857,R,ugm-3,35.92260,R,ugm-3
02-01-2017,19:00,2.01564,R,ugm-3,17.55006,R,ugm-3,20.64066,R,ugm-3,35.77292,R,ugm-3
02-01-2017,20:00,2.26759,R,ugm-3,19.91869,R,ugm-3,23.39561,R,ugm-3,28.78797,R,ugm-3
02-01-2017,21:00,2.74001,R,ugm-3,21.90147,R,ugm-3,26.10276,R,ugm-3,25.04604,R,ugm-3
02-01-2017,22:00,3.11794,R,ugm-3,22.91701,R,ugm-3,27.69778,R,ugm-3,23.24991,R,ugm-3
02-01-2017,23:00,3.21242,R,ugm-3,22.14388,R,ugm-3,27.06953,R,ugm-3,22.35184,R,ugm-3
02-01-2017,24:00,3.21242,R,ugm-3,25.14077,R,ugm-3,30.06641,R,ugm-3,20.10668,R,ugm-3
03-01-2017,01:00,3.23716,R,ugm-3,25.19974,R,ugm-3,30.16331,R,ugm-3,19.69091,R,ugm-3
03-01-2017,02:00,3.11077,R,ugm-3,27.77843,R,ugm-3,32.54820,R,ugm-3,18.36044,R,ugm-3
03-01-2017,03:00,3.21616,R,ugm-3,29.09869,R,ugm-3,34.03007,R,ugm-3,17.56216,R,ugm-3
03-01-2017,04:00,3.37364,R,ugm-3,28.76065,R,ugm-3,33.93349,R,ugm-3,19.50797,R,ugm-3
03-01-2017,05:00,3.21616,R,ugm-3,27.50414,R,ugm-3,32.43552,R,ugm-3,20.80517,R,ugm-3
03-01-2017,06:00,3.15286,R,ugm-3,25.76377,R,ugm-3,30.59809,R,ugm-3,21.95270,R,ugm-3
03-01-2017,07:00,2.93147,R,ugm-3,25.57156,R,ugm-3,30.06641,R,ugm-3,24.44733,R,ugm-3
03-01-2017,08:00,2.86848,R,ugm-3,24.50821,R,ugm-3,28.90648,R,ugm-3,,,
03-01-2017,09:00,2.99477,R,ugm-3,25.61937,R,ugm-3,30.21128,R,ugm-3,28.93765,R,ugm-3
03-01-2017,10:00,3.53111,R,ugm-3,29.24452,R,ugm-3,34.65880,R,ugm-3,30.33464,R,ugm-3
03-01-2017,11:00,5.45382,R,ugm-3,36.88208,R,ugm-3,45.24449,R,ugm-3,27.34109,R,ugm-3
03-01-2017,12:00,6.58855,R,ugm-3,33.93397,R,ugm-3,44.03627,R,ugm-3,32.38023,R,ugm-3
03-01-2017,13:00,4.38208,R,ugm-3,25.08770,R,ugm-3,31.80679,R,ugm-3,42.90755,R,ugm-3
03-01-2017,14:00,3.53111,R,ugm-3,24.02387,R,ugm-3,29.43816,R,ugm-3,45.60175,R,ugm-3
03-01-2017,15:00,2.33308,R,ugm-3,25.08770,R,ugm-3,28.66503,R,ugm-3,45.10282,R,ugm-3
03-01-2017,16:00,1.70225,R,ugm-3,23.25122,R,ugm-3,25.86130,R,ugm-3,48.79487,R,ugm-3
03-01-2017,17:00,1.10355,R,ugm-3,18.17497,R,ugm-3,19.86705,R,ugm-3,53.93379,R,ugm-3
03-01-2017,18:00,1.00907,R,ugm-3,17.49842,R,ugm-3,19.04563,R,ugm-3,53.78412,R,ugm-3
03-01-2017,19:00,1.13504,R,ugm-3,18.90028,R,ugm-3,20.64066,R,ugm-3,51.58885,R,ugm-3
03-01-2017,20:00,1.29252,R,ugm-3,18.80418,R,ugm-3,20.78601,R,ugm-3,49.24390,R,ugm-3
03-01-2017,21:00,1.35550,R,ugm-3,19.04563,R,ugm-3,21.12404,R,ugm-3,47.54755,R,ugm-3
03-01-2017,22:00,1.60746,R,ugm-3,19.33538,R,ugm-3,21.80011,R,ugm-3,46.40003,R,ugm-3
03-01-2017,23:00,1.76493,R,ugm-3,17.20915,R,ugm-3,19.91534,R,ugm-3,49.99229,R,ugm-3
03-01-2017,24:00,1.79642,R,ugm-3,15.75900,R,ugm-3,18.51348,R,ugm-3,51.63874,R,ugm-3
04-01-2017,01:00,1.80692,R,ugm-3,14.05114,R,ugm-3,16.82171,R,ugm-3,53.61781,R,ugm-3
04-01-2017,02:00,1.38700,R,ugm-3,13.47101,R,ugm-3,15.59771,R,ugm-3,54.61566,R,ugm-3
04-01-2017,03:00,1.29252,R,ugm-3,12.37435,R,ugm-3,14.35618,R,ugm-3,53.78412,R,ugm-3
04-01-2017,04:00,1.07205,R,ugm-3,11.50464,R,ugm-3,13.14844,R,ugm-3,54.98154,R,ugm-3
04-01-2017,05:00,0.78861,R,ugm-3,10.29547,R,ugm-3,11.50464,R,ugm-3,55.23100,R,ugm-3
04-01-2017,06:00,0.82010,R,ugm-3,10.68179,R,ugm-3,11.93926,R,ugm-3,53.03573,R,ugm-3
04-01-2017,07:00,1.00907,R,ugm-3,11.31053,R,ugm-3,12.85774,R,ugm-3,50.54110,R,ugm-3
04-01-2017,08:00,1.16654,R,ugm-3,12.08413,R,ugm-3,13.87280,R,ugm-3,50.34153,R,ugm-3
04-01-2017,09:00,1.48148,R,ugm-3,13.29331,R,ugm-3,15.56488,R,ugm-3,48.99444,R,ugm-3
04-01-2017,10:00,1.76524,R,ugm-3,17.74035,R,ugm-3,20.44702,R,ugm-3,47.34798,R,ugm-3
04-01-2017,11:00,1.73344,R,ugm-3,13.53572,R,ugm-3,16.19362,R,ugm-3,57.37638,R,ugm-3
04-01-2017,12:00,1.48148,R,ugm-3,12.08509,R,ugm-3,14.35666,R,ugm-3,64.31143,R,ugm-3
04-01-2017,13:00,0.91458,R,ugm-3,10.68227,R,ugm-3,12.08461,R,ugm-3,67.20520,R,ugm-3
04-01-2017,14:00,0.82010,R,ugm-3,8.99018,R,ugm-3,10.24765,R,ugm-3,69.20090,R,ugm-3
04-01-2017,15:00,0.47273,R,ugm-3,9.13601,R,ugm-3,9.86085,R,ugm-3,66.75617,R,ugm-3
04-01-2017,16:00,0.50391,R,ugm-3,11.07051,R,ugm-3,11.84316,R,ugm-3,63.41337,R,ugm-3
04-01-2017,17:00,0.44092,R,ugm-3,11.65047,R,ugm-3,12.32654,R,ugm-3,63.26369,R,ugm-3
04-01-2017,18:00,0.34644,R,ugm-3,12.76163,R,ugm-3,13.29283,R,ugm-3,59.77122,R,ugm-3
04-01-2017,19:00,0.56752,R,ugm-3,14.74298,R,ugm-3,15.61317,R,ugm-3,54.28304,R,ugm-3
04-01-2017,20:00,0.82010,R,ugm-3,14.93615,R,ugm-3,16.19362,R,ugm-3,51.33938,R,ugm-3
04-01-2017,21:00,0.94608,R,ugm-3,15.75804,R,ugm-3,17.20868,R,ugm-3,50.09207,R,ugm-3
04-01-2017,22:00,0.82010,R,ugm-3,16.04779,R,ugm-3,17.30526,R,ugm-3,47.54755,R,ugm-3
04-01-2017,23:00,0.75711,R,ugm-3,14.83909,R,ugm-3,15.99998,R,ugm-3,47.14841,R,ugm-3
04-01-2017,24:00,0.91458,R,ugm-3,14.79080,R,ugm-3,16.19314,R,ugm-3,46.00089,R,ugm-3
05-01-2017,01:00,1.05106,R,ugm-3,12.43826,R,ugm-3,14.04986,R,ugm-3,48.62856,R,ugm-3
05-01-2017,02:00,1.17704,R,ugm-3,13.72793,R,ugm-3,15.53269,R,ugm-3,44.43759,R,ugm-3
05-01-2017,03:00,1.48148,R,ugm-3,13.34160,R,ugm-3,15.61317,R,ugm-3,43.20691,R,ugm-3
05-01-2017,04:00,1.29252,R,ugm-3,13.43866,R,ugm-3,15.42049,R,ugm-3,43.65594,R,ugm-3
05-01-2017,05:00,1.32401,R,ugm-3,13.34208,R,ugm-3,15.37220,R,ugm-3,43.30669,R,ugm-3
05-01-2017,06:00,1.48148,R,ugm-3,13.34160,R,ugm-3,15.61317,R,ugm-3,41.80992,R,ugm-3
05-01-2017,07:00,1.57596,R,ugm-3,15.61413,R,ugm-3,18.03057,R,ugm-3,38.51701,R,ugm-3
05-01-2017,08:00,1.57596,R,ugm-3,17.78912,R,ugm-3,20.20556,R,ugm-3,35.42368,R,ugm-3
05-01-2017,09:00,2.55354,R,ugm-3,25.42621,R,ugm-3,29.34158,R,ugm-3,27.88991,R,ugm-3
05-01-2017,10:00,7.31386,R,ugm-3,32.87014,R,ugm-3,44.08456,R,ugm-3,24.04819,R,ugm-3
05-01-2017,11:00,9.33168,R,ugm-3,31.80631,R,ugm-3,46.11468,R,ugm-3,30.73378,R,ugm-3
05-01-2017,12:00,5.23336,R,ugm-3,20.30214,R,ugm-3,28.32652,R,ugm-3,46.35013,R,ugm-3
05-01-2017,13:00,3.72007,R,ugm-3,17.25649,R,ugm-3,22.96052,R,ugm-3,52.83616,R,ugm-3
05-01-2017,14:00,3.53111,R,ugm-3,17.35307,R,ugm-3,22.76736,R,ugm-3,56.37853,R,ugm-3
05-01-2017,15:00,3.81456,R,ugm-3,20.35091,R,ugm-3,26.19982,R,ugm-3,53.38498,R,ugm-3
05-01-2017,16:00,4.79182,R,ugm-3,26.34469,R,ugm-3,33.69203,R,ugm-3,39.56475,R,ugm-3
05-01-2017,17:00,5.42233,R,ugm-3,33.88520,R,ugm-3,42.19931,R,ugm-3,23.15012,R,ugm-3
05-01-2017,18:00,4.98109,R,ugm-3,38.04202,R,ugm-3,45.67958,R,ugm-3,15.01764,R,ugm-3
05-01-2017,19:00,6.33660,R,ugm-3,46.40538,R,ugm-3,56.12136,R,ugm-3,7.03484,R,ugm-3
05-01-2017,20:00,12.92546,R,ugm-3,56.89448,R,ugm-3,76.71324,R,ugm-3,1.64645,R,ugm-3
05-01-2017,21:00,14.56472,R,ugm-3,53.51079,R,ugm-3,75.84306,R,ugm-3,2.09549,R,ugm-3
05-01-2017,22:00,25.15773,R,ugm-3,52.25333,R,ugm-3,90.82797,R,ugm-3,1.79613,R,ugm-3
05-01-2017,23:00,21.21689,R,ugm-3,49.01498,R,ugm-3,81.54709,R,ugm-3,1.69635,R,ugm-3
05-01-2017,24:00,8.73266,R,ugm-3,33.35352,R,ugm-3,46.74341,R,ugm-3,23.89851,R,ugm-3
06-01-2017,01:00,4.58175,R,ugm-3,38.99333,R,ugm-3,46.01858,R,ugm-3,23.41621,R,ugm-3
06-01-2017,02:00,3.61509,R,ugm-3,37.70366,R,ugm-3,43.24673,R,ugm-3,28.53851,R,ugm-3
06-01-2017,03:00,3.12106,R,ugm-3,32.43504,R,ugm-3,37.22060,R,ugm-3,32.33034,R,ugm-3
06-01-2017,04:00,2.89997,R,ugm-3,33.40229,R,ugm-3,37.84885,R,ugm-3,29.73593,R,ugm-3
06-01-2017,05:00,2.64802,R,ugm-3,33.25742,R,ugm-3,37.31766,R,ugm-3,30.93335,R,ugm-3
06-01-2017,06:00,2.08081,R,ugm-3,21.94546,R,ugm-3,25.13599,R,ugm-3,39.41508,R,ugm-3
06-01-2017,07:00,1.76493,R,ugm-3,20.93136,R,ugm-3,23.63754,R,ugm-3,37.96819,R,ugm-3
06-01-2017,08:00,1.85941,R,ugm-3,20.88307,R,ugm-3,23.73413,R,ugm-3,37.41938,R,ugm-3
06-01-2017,09:00,2.08112,R,ugm-3,18.46423,R,ugm-3,21.65524,R,ugm-3,41.76002,R,ugm-3
06-01-2017,10:00,2.36457,R,ugm-3,20.73724,R,ugm-3,24.36286,R,ugm-3,44.00519,R,ugm-3
06-01-2017,11:00,2.17560,R,ugm-3,17.20868,R,ugm-3,20.54455,R,ugm-3,51.08992,R,ugm-3
06-01-2017,12:00,2.33308,R,ugm-3,19.09344,R,ugm-3,22.67078,R,ugm-3,51.33938,R,ugm-3
06-01-2017,13:00,1.57596,R,ugm-3,15.56584,R,ugm-3,17.98228,R,ugm-3,55.77982,R,ugm-3
06-01-2017,14:00,1.19803,R,ugm-3,16.62775,R,ugm-3,18.46471,R,ugm-3,52.33723,R,ugm-3
06-01-2017,15:00,0.97757,R,ugm-3,16.82139,R,ugm-3,18.32032,R,ugm-3,50.94024,R,ugm-3
06-01-2017,16:00,1.16654,R,ugm-3,18.61006,R,ugm-3,20.39873,R,ugm-3,51.13981,R,ugm-3
06-01-2017,17:00,1.32401,R,ugm-3,21.70401,R,ugm-3,23.73413,R,ugm-3,46.99874,R,ugm-3
06-01-2017,18:00,1.32401,R,ugm-3,23.20245,R,ugm-3,25.23257,R,ugm-3,40.81207,R,ugm-3
06-01-2017,19:00,1.00907,R,ugm-3,30.01764,R,ugm-3,31.56486,R,ugm-3,28.18926,R,ugm-3
06-01-2017,20:00,1.10355,R,ugm-3,27.84313,R,ugm-3,29.53522,R,ugm-3,35.97249,R,ugm-3
06-01-2017,21:00,0.88309,R,ugm-3,25.57060,R,ugm-3,26.92465,R,ugm-3,39.86411,R,ugm-3
06-01-2017,22:00,0.78861,R,ugm-3,20.78505,R,ugm-3,21.99423,R,ugm-3,45.20261,R,ugm-3
06-01-2017,23:00,0.47273,R,ugm-3,17.11209,R,ugm-3,17.83693,R,ugm-3,47.89680,R,ugm-3
06-01-2017,24:00,0.34644,R,ugm-3,15.22685,R,ugm-3,15.75804,R,ugm-3,49.74282,R,ugm-3
07-01-2017,01:00,0.37793,R,ugm-3,12.63334,R,ugm-3,13.21283,R,ugm-3,50.02555,R,ugm-3
07-01-2017,02:00,0.63072,R,ugm-3,14.88818,R,ugm-3,15.85526,R,ugm-3,44.57063,R,ugm-3
07-01-2017,03:00,1.38700,R,ugm-3,16.24238,R,ugm-3,18.36908,R,ugm-3,41.06153,R,ugm-3
07-01-2017,04:00,2.14380,R,ugm-3,17.11162,R,ugm-3,20.39873,R,ugm-3,41.80992,R,ugm-3
07-01-2017,05:00,3.02657,R,ugm-3,19.19050,R,ugm-3,23.83118,R,ugm-3,36.32174,R,ugm-3
07-01-2017,06:00,4.03533,R,ugm-3,20.44702,R,ugm-3,26.63443,R,ugm-3,32.18066,R,ugm-3
07-01-2017,07:00,4.82362,R,ugm-3,20.73724,R,ugm-3,28.13335,R,ugm-3,29.38668,R,ugm-3
07-01-2017,08:00,5.54861,R,ugm-3,21.80011,R,ugm-3,30.30787,R,ugm-3,24.49722,R,ugm-3
07-01-2017,09:00,6.36809,R,ugm-3,23.92777,R,ugm-3,33.69203,R,ugm-3,19.40818,R,ugm-3
07-01-2017,10:00,6.58855,R,ugm-3,22.04300,R,ugm-3,32.14530,R,ugm-3,21.10453,R,ugm-3
07-01-2017,11:00,6.96711,R,ugm-3,21.22062,R,ugm-3,31.90337,R,ugm-3,21.45378,R,ugm-3
07-01-2017,12:00,6.58855,R,ugm-3,21.31816,R,ugm-3,31.42046,R,ugm-3,19.05894,R,ugm-3
07-01-2017,13:00,6.93561,R,ugm-3,22.28397,R,ugm-3,32.91843,R,ugm-3,16.21506,R,ugm-3
07-01-2017,14:00,7.28236,R,ugm-3,22.81613,R,ugm-3,33.98226,R,ugm-3,16.61420,R,ugm-3
07-01-2017,15:00,7.75509,R,ugm-3,25.52279,R,ugm-3,37.41376,R,ugm-3,15.46668,R,ugm-3
07-01-2017,16:00,7.62911,R,ugm-3,27.31146,R,ugm-3,39.00926,R,ugm-3,14.36904,R,ugm-3
07-01-2017,17:00,7.28267,R,ugm-3,27.31050,R,ugm-3,38.47711,R,ugm-3,15.66625,R,ugm-3
07-01-2017,18:00,7.31354,R,ugm-3,26.39298,R,ugm-3,37.60692,R,ugm-3,17.81162,R,ugm-3
07-01-2017,19:00,7.75540,R,ugm-3,28.22946,R,ugm-3,40.12090,R,ugm-3,14.41893,R,ugm-3
07-01-2017,20:00,8.48039,R,ugm-3,28.71332,R,ugm-3,41.71641,R,ugm-3,10.27786,R,ugm-3
07-01-2017,21:00,9.83590,R,ugm-3,32.09701,R,ugm-3,47.17851,R,ugm-3,8.98065,R,ugm-3
07-01-2017,22:00,7.91287,R,ugm-3,29.48645,R,ugm-3,41.61935,R,ugm-3,11.02624,R,ugm-3
07-01-2017,23:00,8.16514,R,ugm-3,27.69778,R,ugm-3,40.21748,R,ugm-3,15.86582,R,ugm-3
07-01-2017,24:00,10.97094,R,ugm-3,32.72527,R,ugm-3,49.54714,R,ugm-3,10.32775,R,ugm-3
08-01-2017,01:00,9.75181,R,ugm-3,31.96744,R,ugm-3,46.92000,R,ugm-3,9.18022,R,ugm-3
08-01-2017,02:00,8.49120,R,ugm-3,30.74216,R,ugm-3,43.76183,R,ugm-3,11.50854,R,ugm-3
08-01-2017,03:00,8.57519,R,ugm-3,27.60072,R,ugm-3,40.74916,R,ugm-3,15.01764,R,ugm-3
08-01-2017,04:00,9.61512,R,ugm-3,31.12976,R,ugm-3,45.87275,R,ugm-3,9.18022,R,ugm-3
08-01-2017,05:00,9.17358,R,ugm-3,28.56845,R,ugm-3,42.63441,R,ugm-3,11.57506,R,ugm-3
08-01-2017,06:00,8.70117,R,ugm-3,27.60120,R,ugm-3,40.94280,R,ugm-3,13.52087,R,ugm-3
08-01-2017,07:00,9.11059,R,ugm-3,27.16658,R,ugm-3,41.13596,R,ugm-3,15.51657,R,ugm-3
08-01-2017,08:00,12.16866,R,ugm-3,32.62868,R,ugm-3,51.28703,R,ugm-3,10.07829,R,ugm-3
08-01-2017,09:00,14.31246,R,ugm-3,36.93085,R,ugm-3,58.87631,R,ugm-3,8.83097,R,ugm-3
08-01-2017,10:00,15.16374,R,ugm-3,35.28658,R,ugm-3,58.53732,R,ugm-3,14.66840,R,ugm-3
08-01-2017,11:00,9.36286,R,ugm-3,24.26628,R,ugm-3,38.62246,R,ugm-3,29.08733,R,ugm-3
08-01-2017,12:00,9.07910,R,ugm-3,22.09081,R,ugm-3,36.01190,R,ugm-3,36.97034,R,ugm-3
08-01-2017,13:00,8.85864,R,ugm-3,23.44438,R,ugm-3,37.02743,R,ugm-3,38.51701,R,ugm-3
08-01-2017,14:00,13.46117,R,ugm-3,38.81610,R,ugm-3,59.45628,R,ugm-3,33.47787,R,ugm-3
08-01-2017,15:00,11.60145,R,ugm-3,31.75850,R,ugm-3,49.54714,R,ugm-3,29.98539,R,ugm-3
08-01-2017,16:00,11.88521,R,ugm-3,31.22682,R,ugm-3,49.45056,R,ugm-3,26.29335,R,ugm-3
08-01-2017,17:00,10.71867,R,ugm-3,29.96983,R,ugm-3,46.40490,R,ugm-3,26.89206,R,ugm-3
08-01-2017,18:00,15.47868,R,ugm-3,34.36906,R,ugm-3,58.10271,R,ugm-3,24.69679,R,ugm-3
08-01-2017,19:00,9.11090,R,ugm-3,24.65308,R,ugm-3,38.62294,R,ugm-3,28.43873,R,ugm-3
08-01-2017,20:00,10.21414,R,ugm-3,40.31502,R,ugm-3,55.97648,R,ugm-3,17.21291,R,ugm-3
08-01-2017,21:00,8.32292,R,ugm-3,43.84263,R,ugm-3,56.60426,R,ugm-3,12.57291,R,ugm-3
08-01-2017,22:00,7.75509,R,ugm-3,37.41424,R,ugm-3,49.30521,R,ugm-3,11.92431,R,ugm-3
08-01-2017,23:00,6.93561,R,ugm-3,39.78239,R,ugm-3,50.41685,R,ugm-3,10.87657,R,ugm-3
08-01-2017,24:00,5.32784,R,ugm-3,30.83954,R,ugm-3,39.00878,R,ugm-3,19.30840,R,ugm-3
09-01-2017,01:00,4.87611,R,ugm-3,19.14158,R,ugm-3,26.61818,R,ugm-3,29.20374,R,ugm-3
09-01-2017,02:00,4.49776,R,ugm-3,17.20804,R,ugm-3,24.10451,R,ugm-3,43.17364,R,ugm-3
09-01-2017,03:00,4.35027,R,ugm-3,16.91893,R,ugm-3,23.58925,R,ugm-3,40.41293,R,ugm-3
09-01-2017,04:00,4.47625,R,ugm-3,18.46567,R,ugm-3,25.32915,R,ugm-3,31.93120,R,ugm-3
09-01-2017,05:00,4.19280,R,ugm-3,18.65835,R,ugm-3,25.08722,R,ugm-3,27.93980,R,ugm-3
09-01-2017,06:00,3.49961,R,ugm-3,18.32032,R,ugm-3,23.68631,R,ugm-3,27.69034,R,ugm-3
09-01-2017,07:00,3.84605,R,ugm-3,18.03057,R,ugm-3,23.92777,R,ugm-3,29.53636,R,ugm-3
09-01-2017,08:00,4.50805,R,ugm-3,21.55913,R,ugm-3,28.47139,R,ugm-3,24.39743,R,ugm-3
09-01-2017,09:00,4.88661,R,ugm-3,21.70401,R,ugm-3,29.19670,R,ugm-3,26.49292,R,ugm-3
09-01-2017,10:00,5.29635,R,ugm-3,25.76424,R,ugm-3,33.88520,R,ugm-3,28.13937,R,ugm-3
09-01-2017,11:00,3.97234,R,ugm-3,24.31409,R,ugm-3,30.40493,R,ugm-3,36.82067,R,ugm-3
09-01-2017,12:00,3.08987,R,ugm-3,20.15679,R,ugm-3,24.89453,R,ugm-3,42.70798,R,ugm-3
09-01-2017,13:00,1.86004,R,ugm-3,18.27203,R,ugm-3,21.12404,R,ugm-3,54.33293,R,ugm-3
09-01-2017,14:00,0.82010,R,ugm-3,14.88786,R,ugm-3,16.14533,R,ugm-3,60.46971,R,ugm-3
09-01-2017,15:00,0.50391,R,ugm-3,14.59907,R,ugm-3,15.37172,R,ugm-3,55.08132,R,ugm-3
09-01-2017,16:00,0.82010,R,ugm-3,15.37076,R,ugm-3,16.62823,R,ugm-3,57.52605,R,ugm-3
09-01-2017,17:00,0.47273,R,ugm-3,14.84004,R,ugm-3,15.56488,R,ugm-3,59.27229,R,ugm-3
09-01-2017,18:00,0.59933,R,ugm-3,15.03273,R,ugm-3,15.95168,R,ugm-3,59.52175,R,ugm-3
09-01-2017,19:00,0.34644,R,ugm-3,14.45372,R,ugm-3,14.98492,R,ugm-3,60.66928,R,ugm-3
09-01-2017,20:00,0.34644,R,ugm-3,10.00668,R,ugm-3,10.53788,R,ugm-3,63.01423,R,ugm-3
09-01-2017,21:00,0.91458,R,ugm-3,11.64904,R,ugm-3,13.05138,R,ugm-3,56.07917,R,ugm-3
09-01-2017,22:00,1.73406,R,ugm-3,14.45324,R,ugm-3,17.11209,R,ugm-3,48.09637,R,ugm-3
09-01-2017,23:00,2.49055,R,ugm-3,17.35355,R,ugm-3,21.17233,R,ugm-3,43.80562,R,ugm-3
09-01-2017,24:00,2.93147,R,ugm-3,17.83789,R,ugm-3,22.33274,R,ugm-3,43.60605,R,ugm-3
10-01-2017,01:00,3.11077,R,ugm-3,20.90681,R,ugm-3,25.67659,R,ugm-3,39.11572,R,ugm-3
10-01-2017,02:00,3.27915,R,ugm-3,29.29440,R,ugm-3,34.32236,R,ugm-3,31.46554,R,ugm-3
10-01-2017,03:00,3.15255,R,ugm-3,26.03678,R,ugm-3,30.87062,R,ugm-3,34.02669,R,ugm-3
10-01-2017,04:00,2.64802,R,ugm-3,21.48789,R,ugm-3,25.54813,R,ugm-3,35.47357,R,ugm-3
10-01-2017,05:00,2.77400,R,ugm-3,17.08484,R,ugm-3,21.33824,R,ugm-3,39.56475,R,ugm-3
10-01-2017,06:00,2.71101,R,ugm-3,14.76211,R,ugm-3,18.91893,R,ugm-3,45.20261,R,ugm-3
10-01-2017,07:00,2.23859,R,ugm-3,14.61580,R,ugm-3,18.04826,R,ugm-3,43.85551,R,ugm-3
10-01-2017,08:00,2.39606,R,ugm-3,16.50296,R,ugm-3,20.17688,R,ugm-3,42.65809,R,ugm-3
10-01-2017,09:00,2.86879,R,ugm-3,20.03678,R,ugm-3,24.43553,R,ugm-3,40.51271,R,ugm-3
10-01-2017,10:00,4.66553,R,ugm-3,22.89406,R,ugm-3,30.04777,R,ugm-3,36.67099,R,ugm-3
10-01-2017,11:00,4.50805,R,ugm-3,18.00619,R,ugm-3,24.91844,R,ugm-3,,,
10-01-2017,12:00,3.31065,R,ugm-3,15.29378,R,ugm-3,20.37004,R,ugm-3,50.04218,R,ugm-3
10-01-2017,13:00,2.23828,R,ugm-3,13.01982,R,ugm-3,16.45180,R,ugm-3,53.53465,R,ugm-3
10-01-2017,14:00,1.60746,R,ugm-3,15.68011,R,ugm-3,18.14484,R,ugm-3,48.29594,R,ugm-3
10-01-2017,15:00,2.33308,R,ugm-3,17.76139,R,ugm-3,21.33872,R,ugm-3,47.24820,R,ugm-3
10-01-2017,16:00,2.55354,R,ugm-3,20.03583,R,ugm-3,23.95119,R,ugm-3,44.95314,R,ugm-3
10-01-2017,17:00,3.27884,R,ugm-3,21.14986,R,ugm-3,26.17734,R,ugm-3,43.35658,R,ugm-3
10-01-2017,18:00,3.90904,R,ugm-3,22.74775,R,ugm-3,28.74153,R,ugm-3,40.21336,R,ugm-3
10-01-2017,19:00,3.75157,R,ugm-3,26.32795,R,ugm-3,32.08028,R,ugm-3,32.87916,R,ugm-3
10-01-2017,20:00,4.00352,R,ugm-3,42.77976,R,ugm-3,48.91840,R,ugm-3,17.91141,R,ugm-3
10-01-2017,21:00,5.20187,R,ugm-3,56.76491,R,ugm-3,64.74099,R,ugm-3,7.93291,R,ugm-3
10-01-2017,22:00,6.62036,R,ugm-3,68.33123,R,ugm-3,78.48231,R,ugm-3,1.69635,R,ugm-3
10-01-2017,23:00,5.35934,R,ugm-3,60.63581,R,ugm-3,68.85335,R,ugm-3,6.88517,R,ugm-3
10-01-2017,24:00,4.19280,R,ugm-3,47.57057,R,ugm-3,53.99944,R,ugm-3,14.16947,R,ugm-3
11-01-2017,01:00,3.40762,R,ugm-3,38.19390,R,ugm-3,43.41885,R,ugm-3,17.82825,R,ugm-3
11-01-2017,02:00,3.11368,R,ugm-3,36.58039,R,ugm-3,41.35462,R,ugm-3,19.75743,R,ugm-3
11-01-2017,03:00,2.93521,R,ugm-3,28.40206,R,ugm-3,32.90265,R,ugm-3,25.79442,R,ugm-3
11-01-2017,04:00,2.65082,R,ugm-3,23.70926,R,ugm-3,27.77380,R,ugm-3,30.08518,R,ugm-3
11-01-2017,05:00,2.05119,R,ugm-3,19.11257,R,ugm-3,22.25768,R,ugm-3,36.47142,R,ugm-3
11-01-2017,06:00,1.45123,R,ugm-3,17.46782,R,ugm-3,19.69301,R,ugm-3,37.12002,R,ugm-3
11-01-2017,07:00,1.67263,R,ugm-3,16.74155,R,ugm-3,19.30621,R,ugm-3,37.86841,R,ugm-3
11-01-2017,08:00,2.30376,R,ugm-3,19.59643,R,ugm-3,23.12882,R,ugm-3,34.52561,R,ugm-3
11-01-2017,09:00,2.77711,R,ugm-3,22.25768,R,ugm-3,26.51586,R,ugm-3,32.57980,R,ugm-3
11-01-2017,10:00,3.94459,R,ugm-3,23.56439,R,ugm-3,29.61267,R,ugm-3,35.27400,R,ugm-3
11-01-2017,11:00,2.30376,R,ugm-3,13.40280,R,ugm-3,16.93519,R,ugm-3,68.55230,R,ugm-3
11-01-2017,12:00,1.01000,R,ugm-3,11.41858,R,ugm-3,12.96723,R,ugm-3,72.04477,R,ugm-3
11-01-2017,13:00,0.25227,R,ugm-3,8.61294,R,ugm-3,8.99975,R,ugm-3,76.23574,R,ugm-3
11-01-2017,14:00,0.28376,R,ugm-3,5.22638,R,ugm-3,5.66148,R,ugm-3,82.32263,R,ugm-3
11-01-2017,15:00,0.31557,R,ugm-3,5.37126,R,ugm-3,5.85512,R,ugm-3,82.32263,R,ugm-3
11-01-2017,16:00,0.31557,R,ugm-3,6.77408,R,ugm-3,7.25794,R,ugm-3,80.97553,R,ugm-3
11-01-2017,17:00,0.22046,R,ugm-3,7.79105,R,ugm-3,8.12908,R,ugm-3,79.42886,R,ugm-3
11-01-2017,18:00,0.37887,R,ugm-3,10.88691,R,ugm-3,11.46783,R,ugm-3,75.23789,R,ugm-3
11-01-2017,19:00,0.37887,R,ugm-3,10.69327,R,ugm-3,11.27419,R,ugm-3,72.34413,R,ugm-3
11-01-2017,20:00,0.53665,R,ugm-3,13.54767,R,ugm-3,14.37053,R,ugm-3,66.30713,R,ugm-3
11-01-2017,21:00,0.66263,R,ugm-3,15.58066,R,ugm-3,16.59668,R,ugm-3,65.10971,R,ugm-3
11-01-2017,22:00,0.75711,R,ugm-3,18.82235,R,ugm-3,19.98323,R,ugm-3,57.87530,R,ugm-3
11-01-2017,23:00,0.72562,R,ugm-3,20.70951,R,ugm-3,21.82210,R,ugm-3,55.48046,R,ugm-3
11-01-2017,24:00,0.56815,R,ugm-3,20.22564,R,ugm-3,21.09679,R,ugm-3,56.32863,R,ugm-3
12-01-2017,01:00,0.33677,R,ugm-3,15.48360,R,ugm-3,15.99998,R,ugm-3,,,
12-01-2017,02:00,0.58914,R,ugm-3,16.83829,R,ugm-3,17.74163,R,ugm-3,56.27874,R,ugm-3
12-01-2017,03:00,0.66263,R,ugm-3,17.27466,R,ugm-3,18.29067,R,ugm-3,54.08347,R,ugm-3
12-01-2017,04:00,0.66263,R,ugm-3,14.95145,R,ugm-3,15.96746,R,ugm-3,56.42842,R,ugm-3
12-01-2017,05:00,0.44217,R,ugm-3,13.59596,R,ugm-3,14.27394,R,ugm-3,56.57810,R,ugm-3
12-01-2017,06:00,0.37887,R,ugm-3,13.20868,R,ugm-3,13.78960,R,ugm-3,58.47401,R,ugm-3
12-01-2017,07:00,0.28376,R,ugm-3,13.59692,R,ugm-3,14.03201,R,ugm-3,58.27444,R,ugm-3
12-01-2017,08:00,0.31557,R,ugm-3,17.66146,R,ugm-3,18.14532,R,ugm-3,53.78412,R,ugm-3
12-01-2017,09:00,0.53665,R,ugm-3,23.99948,R,ugm-3,24.82234,R,ugm-3,45.55185,R,ugm-3
12-01-2017,10:00,0.53665,R,ugm-3,20.51539,R,ugm-3,21.33824,R,ugm-3,47.59745,R,ugm-3
12-01-2017,11:00,0.66263,R,ugm-3,19.83836,R,ugm-3,20.85438,R,ugm-3,49.34368,R,ugm-3
12-01-2017,12:00,0.88340,R,ugm-3,19.11257,R,ugm-3,20.46710,R,ugm-3,53.38498,R,ugm-3
12-01-2017,13:00,0.56815,R,ugm-3,16.88642,R,ugm-3,17.75756,R,ugm-3,58.77337,R,ugm-3
12-01-2017,14:00,0.78892,R,ugm-3,17.51515,R,ugm-3,18.72481,R,ugm-3,56.67788,R,ugm-3
12-01-2017,15:00,3.21897,R,ugm-3,25.49888,R,ugm-3,30.43457,R,ugm-3,41.11142,R,ugm-3
12-01-2017,16:00,3.53454,R,ugm-3,27.04753,R,ugm-3,32.46708,R,ugm-3,38.61680,R,ugm-3
12-01-2017,17:00,3.72381,R,ugm-3,25.83835,R,ugm-3,31.54812,R,ugm-3,50.14196,R,ugm-3
12-01-2017,18:00,3.25015,R,ugm-3,19.83884,R,ugm-3,24.82234,R,ugm-3,57.22670,R,ugm-3
12-01-2017,19:00,2.87191,R,ugm-3,26.17687,R,ugm-3,30.58040,R,ugm-3,46.89895,R,ugm-3